Flag for India Weather past 2 weeks in Nagaur, Rajasthan, India

Now
82 °F

Passing clouds.


Feels Like: 91 °F
Forecast: 86 / 95 °F
Wind: 7 mph from East

Location: Jaipur / Sanganer

Current Time: Jul 31, 2014 at 7:46:09 AM

Latest Report: Jul 31, 2014 at 6:00 AM


Visibility: 2 mi

Pressure: 29.62 "Hg

Humidity: 84%

Dew point: 77 °F

Location of NagaurLocation

Historic Weather in Nagaur — Graph

°F

Nagaur temperature yesterday

Maximum temperature yesterday: 90 °F (at 2:00 PM)
Minimum temperature yesterday: 77 °F (at 4:00 AM)
Average temperature yesterday: 85 °F

Past Weeks' High & Low Weather Summary

 TemperatureHumidityPressure
High95 °F (Jul 16, 12:00 PM)100% (Jul 17, 3:00 AM)29.74 "Hg (Jul 17, 3:00 AM)
Low75 °F (Jul 21, 1:00 AM)49% (Jul 21, 6:00 PM)29.42 "Hg (Jul 18, 4:00 PM)
Average85 °F74%29.57 "Hg
* Reported Jul 16 7:00 AM — Jul 31 6:00 AM, Nagaur, Weather by CustomWeather, © 2014

Note: Actual official high and low records may vary slightly from our data, if they occured in-between our weather recording intervals... More about our weather records

Advertising

Nagaur weather history for previous 24 hours

 ConditionsComfort  
Time TempWeatherWind HumidityBarometerVisibility
6:00 AM
Jul 31
82 °FPassing clouds.7 mph84%29.62 "Hg2 mi
5:00 AM82 °FPassing clouds.3 mph84%29.62 "Hg2 mi
4:00 AM82 °FPassing clouds.5 mph84%29.59 "Hg2 mi
3:00 AM82 °FPassing clouds.5 mph84%29.59 "Hg2 mi
2:00 AM82 °FPassing clouds.5 mph84%29.59 "Hg2 mi
12:00 AM82 °FPassing clouds.6 mph89%29.62 "Hg2 mi
11:00 PM
Jul 30
84 °FPassing clouds.6 mph84%29.62 "Hg2 mi
10:00 PM84 °FPassing clouds.6 mph84%29.62 "Hg2 mi
9:00 PM86 °FPassing clouds.3 mph84%29.62 "Hg2 mi
8:30 PM86 °FPassing clouds.No wind79%29.59 "Hg2 mi
7:00 PM88 °FBroken clouds.3 mph75%29.56 "Hg2 mi
6:00 PM90 °FBroken clouds.5 mph67%29.56 "Hg2 mi
5:00 PM90 °FBroken clouds.8 mph63%29.53 "Hg2 mi
3:00 PM88 °FBroken clouds.8 mph70%29.56 "Hg2 mi
2:00 PM90 °FScattered clouds.6 mph67%29.59 "Hg2 mi
1:00 PM86 °FScattered clouds.10 mph79%29.62 "Hg2 mi
12:00 PM88 °FScattered clouds.6 mph75%29.62 "Hg2 mi
11:00 AM88 °FScattered clouds.9 mph70%29.62 "Hg2 mi
10:00 AM88 °FScattered clouds.8 mph75%29.65 "Hg2 mi
9:00 AM86 °FFog.8 mph79%29.65 "Hg2 mi
8:00 AM82 °FFog.8 mph89%29.62 "Hg2 mi
7:00 AM81 °FFog.6 mph89%29.62 "Hg2 mi
Weather by CustomWeather, © 2014

See weather overviewHow to use our weather pages